sat.trackr.live / text

‹ back to catalog

STARLINK-36997

NORAD 68248 · 2026-054S

PAYLOAD ACTIVE UNKNOWN

§ Identity

Operator
Country
US
Launch date
2026-03-17
Launch site
AFETR
Launch vehicle
Mass (kg)
RCS (m²)

Purposes: comms

External: N2YO · Heavens-Above · Gunter

§ Orbital elements

Epoch: 2026-05-25T03:03:49.144032Z

Period
94.10 min
Inclination
53.1573°
Eccentricity
0.0000777
Mean motion
15.30217546 rev/d
Perigee alt
474.6 km
Apogee alt
475.7 km
Semi-major
6,853.3 km
B*
6.0394e-4
RAAN
301.9488°
Arg perigee
56.5862°
Mean anomaly
303.5213°
Rev number
1,069

§ Raw data

STARLINK-369971 68248U 26054S   26145.12765213  .00017580  00000+0  60394-3 0  99952 68248  53.1573 301.9488 0000777  56.5862 303.5213 15.30217546 10697

JSON: /api/v1/satellites/68248 · /tle

For live sub-satellite position, see the globe view (requires WebGL).

§ Visibility from observer

Set your observer location to see the next 7 days of passes ≥ 10°. The values pass through the URL so the page stays shareable.

No JS? Fill the form by hand. The geolocation button needs JavaScript.